Regional Weather Roundup
Issued by NWS

Home | Current Version | Previous Version | Graphics & Text | Print | Product List | Glossary On
Versions: 1 2 3 4 5 6 7 8 9 10 11 12 13 14 15 16 17 18 19 20 21 22 23 24 25 26 27 28 29 30 31 32 33 34 35 36 37 38 39 40 41 42 43 44 45 46 47 48 49 50
000
ASUS43 KMKX 281200
RWRWI

WISCONSIN REGIONAL WEATHER ROUNDUP
NATIONAL WEATHER SERVICE MILWAUKEE/SULLIVAN WI
700 AM CDT THU AUG 28 2014

NOTE: "FAIR" INDICATES FEW OR NO CLOUDS BELOW 12,000 FEET WITH NO
SIGNIFICANT WEATHER AND/OR OBSTRUCTIONS TO VISIBILITY.

WIZ001-002-006>008-014>016-023>028-281300-
NORTHWEST WISCONSIN

CITY           SKY/WX    TMP DP  RH WIND       PRES   REMARKS
SUPERIOR ARPT  FOG       46  46 100 CALM      30.11F VSB 1/2
ASHLAND        CLEAR     47  46  97 CALM      30.14S
6HR MIN TEMP:  44; 6HR MAX TEMP:  50;

HAYWARD        CLEAR     50  49  96 CALM      30.14S
6HR MIN TEMP:  47; 6HR MAX TEMP:  51;

SIREN          CLEAR     50  49  95 CALM      30.11S
RICE LAKE      CLEAR     53  48  83 CALM      30.14S
6HR MIN TEMP:  52; 6HR MAX TEMP:  55;

LADYSMITH      CLEAR     51  47  86 E7        30.15F
EAU CLAIRE     NOT AVBL
MENOMONIE      SUNNY     55  50  83 E3        30.12R
NEW RICHMOND   CLEAR     56  52  86 E3        30.11R
OSCEOLA        CLEAR     57  55  94 E5        30.13R
$$

WIZ003>005-009-010-017-018-281300-
NORTH CENTRAL WISCONSIN

CITY           SKY/WX    TMP DP  RH WIND       PRES   REMARKS
WOODRUFF       CLEAR     48  46  93 CALM      30.17S
RHINELANDER    CLEAR     47  45  93 E3        30.17F
6HR MIN TEMP:  43; 6HR MAX TEMP:  48;

EAGLE RIVER    FOG       40  40 100 CALM      30.17R VSB 1
LAND O LAKES   CLEAR     39  39 100 CALM      30.18F
PHILLIPS       CLEAR     46  45  98 CALM      30.15S
TOMAHAWK       CLEAR     38  38  97 CALM      30.17F
MEDFORD        CLEAR     47  46  97 E5        30.15F
MERRILL        CLEAR     45  45 100 CALM      30.16F
$$

WIZ029-030-035-036-043>047-281300-
CENTRAL WISCONSIN

CITY           SKY/WX    TMP DP  RH WIND       PRES   REMARKS
WAUSAU         CLEAR     52  50  93 CALM      30.14F
6HR MIN TEMP:  51; 6HR MAX TEMP:  57;

MOSINEE        PTCLDY    50  50 100 E5        30.16S
MARSHFIELD     CLEAR     53  50  89 E6        30.13F
6HR MIN TEMP:  52; 6HR MAX TEMP:  59;

STEVENS POINT  FOG       51  51  99 NE5       30.15F VSB 1/4
WAUPACA        CLOUDY    61  60  95 CALM      30.15S
WAUTOMA        LGT RAIN  57  57 100 CALM      30.15S VSB<1/4
WISC RAPIDS    PTCLDY    53  51  93 E5        30.15S
6HR MIN TEMP:  53; 6HR MAX TEMP:  58;

CAMP DOUGLAS   FOG       50  50 100 CALM      30.13S VSB 1/2
$$

WIZ011>013-019>022-031-037>040-048>050-281300-
NORTHEAST WISCONSIN

CITY           SKY/WX    TMP DP  RH WIND       PRES   REMARKS
ANTIGO         FOG       49  49 100 CALM      30.17S VSB 1/4
STURGEON BAY   MOCLDY    57  52  82 SE5       30.17S
6HR MIN TEMP:  55; 6HR MAX TEMP:  59;

GREEN BAY      CLOUDY    60  57  89 CALM      30.16S
6HR MIN TEMP:  55; 6HR MAX TEMP:  60;

MANITOWOC      NOT AVBL
APPLETON       MOCLDY    59  55  88 CALM      30.15F
CLINTONVILLE   CLOUDY    57  55  94 CALM      30.15F
OSHKOSH        CLOUDY    60  58  92 S3        30.14S
6HR MIN TEMP:  57; 6HR MAX TEMP:  60;

$$

WIZ032>034-041-042-053>061-281300-
SOUTHWEST WISCONSIN

CITY           SKY/WX    TMP DP  RH WIND       PRES   REMARKS
LA CROSSE      CLEAR     60  57  89 E3        30.10F
6HR MIN TEMP:  59; 6HR MAX TEMP:  63;

SPARTA         CLEAR     54  52  95 CALM      30.13S
VIROQUA        FAIR      57  57 100 E6        30.12F
BOSCOBEL       FOG       61  59  93 NE3       30.12S VSB 3/4
6HR MIN TEMP:  59; 6HR MAX TEMP:  61;

PRAIRIE DU CHI CLEAR     59  58  96 SE3       30.10S
PLATTEVILLE    CLOUDY    62  61  97 E5        30.13S
$$

WIZ056-057-062-063-064-067-068-281300-
SOUTH CENTRAL WISCONSIN

CITY           SKY/WX    TMP DP  RH WIND       PRES   REMARKS
BARABOO/DELLS    N/A     58  57  94 CALM      30.14R FOG
LONE ROCK      FOG       61  57  87 NE3       30.13S VSB 1/4
WATERTOWN      FOG       54  54 100 CALM      30.14S VSB 1/2
MADISON        MOCLDY    58  56  93 CALM      30.14S
6HR MIN TEMP:  56; 6HR MAX TEMP:  64;

MIDDLETON      PTSUNNY   57  57  99 CALM      30.14R
MONROE         CLEAR     59  59 100 E5        30.13S
JANESVILLE     NOT AVBL
$$

WIZ051-052-058>065-066-070>072-281300-
SOUTHEAST WISCONSIN

CITY           SKY/WX    TMP DP  RH WIND       PRES   REMARKS
MILWAUKEE      PTCLDY    64  56  75 SE10      30.15R
6HR MIN TEMP:  60; 6HR MAX TEMP:  64;

WAUKESHA       CLEAR     54  54 100 CALM      30.17R
MILWAUKEE/TIMM CLEAR     55  54  94 CALM      30.16R
RACINE         CLEAR     65  55  70 SE10      30.17R
6HR MIN TEMP:  60; 6HR MAX TEMP:  65;

BURLINGTON     CLEAR     53  53 100 CALM      30.15R FOG
KENOSHA        CLEAR     63  57  81 E8        30.16R
6HR MIN TEMP:  56; 6HR MAX TEMP:  63;

FOND DU LAC    CLEAR     58  55  90 SE5       30.15S
6HR MIN TEMP:  56; 6HR MAX TEMP:  61;

SHEBOYGAN      CLEAR     55  53  93 CALM      30.16S
6HR MIN TEMP:  52; 6HR MAX TEMP:  56;

WEST BEND      CLEAR     52  50  93 CALM      30.15F
JUNEAU         CLEAR     56  55  95 CALM      30.16R
$$

LSZ147-162-281300-
LAKE SUPERIOR

STATION/POSITION TIME  TEMP    WIND        PRES    WAVE
                       AIR SEA DIR/SP/G            HT/PER
                 (UTC) (F)     (DEG/KT/KT) (MB)    (FT/S)
W MID LAKE BUOY  1050   58 56  140/  6/  6 1020.5S   1
DEVILS ISLAND    1100   59     190/  7/ 10 1020.5R
PORT WING        1100   55     120/  2/  2 1020.3S
SAXON HARBOR     1100   55     200/  5/  8 1020.3S
$$

LMZ867-665-643>646-281300-
LAKE MICHIGAN

STATION/POSITION TIME  TEMP    WIND        PRES    WAVE
                       AIR SEA DIR/SP/G            HT/PER
                 (UTC) (F)     (DEG/KT/KT) (MB)    (FT/S)
N MID LAKE BUOY  1050   62 65   80/  4/  6 1021.8R   0
NORTHPORT PIER   1100   61     180/  4/  5 1021.7R
SISTER BAY       1111   59        CALM       N/A
KEWAUNEE LAKESHO 1100   63     140/  6/  8 1020.5R
SHEBOYGAN LAKESH 1100   65 68  120/ 13/ 14 1021.1F
ATWATER BUOY     1100   67     120/ 12/ 16 1021.7R
MILWAUKEE LAKESH 1100   66     110/ 12/ 13   N/A
S MID LAKE BUOY  1050   65 69   90/ 14/ 16 1020.8S   2/ 3
KENOSHA   LAKESH 1100   67     100/ 15/ 17 1020.3R
$$

TC  - TEMPERATURE IN CELSIUS
VSB - VISIBILITY IN STATUTE MILES
WCI - WIND CHILL INDEX
HX  - HEAT INDEX



USA.gov is the U.S. government's official web portal to all federal, state and local government web resources and services.